East Saint Louis, IL

9:05 PM CST on February 20, 2017 (GMT -0600)
Saint Louis Downtown

Weather History for KCPS - March, 2013

Change the Weather History Date:

Saturday, March 16, 2013

  Actual Average Record
Temperature  
Mean Temperature 51 °F -  
Max Temperature 64 °F 63 °F 85 °F (1945)
Min Temperature 39 °F 40 °F 21 °F (1997)
Degree Days  
Heating Degree Days 14    
Growing Degree Days 1 (Base 50)    
Moisture  
Dew Point 38 °F    
Average Humidity 75    
Maximum Humidity 93    
Minimum Humidity 45    
Precipitation  
Precipitation 0.03 in - - ()
Sea Level Pressure  
Sea Level Pressure 29.92 in    
Wind  
Wind Speed 8 mph (North)    
Max Wind Speed 22 mph    
Max Gust Speed 30 mph    
Visibility 6 miles    
Events Rain    
Averages and records for this station are not official NWS values.
T = Trace of Precipitation, MM = Missing Value Source: NWS Daily Summary

Daily Weather History Graph

Daily Weather History Graph

Search for Another Location

Airport or City:

Trip Planner

Search our weather history database for the weather conditions in past years. The results will help you decide how hot, cold, wet, or windy it might be!

Date:

Astronomy

Mar. 16, 2013 Rise Set
Actual Time 7:09 AM CDT 7:08 PM CDT
Civil Twilight 6:43 AM CDT 7:35 PM CDT
Nautical Twilight 6:12 AM CDT 8:06 PM CDT
Astronomical Twilight 5:41 AM CDT 8:37 PM CDT
Moon 9:43 AM CDT (3/16) No Moon Set
Length of Visible Light 12h 51m
Length of Day
11h 59m
Waxing Crescent, 23% of the Moon is Illuminated
Mar 16
Waxing Crescent
Mar 19
First Quarter
Mar 27
Full
Apr 2
Last Quarter
Apr 10
New

Hourly Weather History & Observations

Time (CDT) Temp. Windchill Dew Point Humidity Pressure Visibility Wind Dir Wind Speed Gust Speed Precip Events Conditions
12:53 AM 46.9 °F - 43.0 °F 86% 29.66 in 6.0 mi Calm Calm - N/A   Clear
1:53 AM 60.1 °F - 41.0 °F 49% 29.64 in 10.0 mi SSW 4.6 mph - N/A   Clear
2:53 AM 63.0 °F - 41.0 °F 45% 29.65 in 10.0 mi SW 5.8 mph - N/A   Clear
3:53 AM 62.1 °F - 42.1 °F 48% 29.65 in 10.0 mi WSW 6.9 mph - N/A   Clear
4:53 AM 63.0 °F - 43.0 °F 48% 29.67 in 10.0 mi West 5.8 mph - N/A   Clear
5:53 AM 55.9 °F - 43.0 °F 62% 29.71 in 10.0 mi NW 9.2 mph - N/A   Clear
6:53 AM 55.0 °F - 45.0 °F 69% 29.75 in 10.0 mi NW 10.4 mph - N/A   Clear
7:53 AM 52.0 °F - 43.0 °F 71% 29.79 in 10.0 mi NW 15.0 mph - N/A   Clear
8:53 AM 48.9 °F - 41.0 °F 74% 29.85 in 7.0 mi NNW 19.6 mph - N/A   Clear
9:27 AM 46.4 °F 38.5 °F 39.2 °F 76% 29.89 in 4.0 mi NNW 21.9 mph - N/A   Haze
9:50 AM 44.6 °F 37.2 °F 37.4 °F 76% 29.92 in 3.0 mi North 17.3 mph 24.2 mph N/A   Haze
9:53 AM 44.1 °F 36.5 °F 37.9 °F 79% 29.92 in 3.0 mi North 17.3 mph 24.2 mph N/A   Haze
10:53 AM 42.1 °F 34.5 °F 36.0 °F 79% 29.94 in 3.0 mi NNW 15.0 mph 29.9 mph N/A   Haze
11:10 AM 42.8 °F 35.8 °F 35.6 °F 76% 29.95 in 4.0 mi NNW 13.8 mph 20.7 mph N/A   Haze
11:53 AM 44.1 °F 37.4 °F 36.0 °F 73% 29.97 in 5.0 mi NNW 13.8 mph - N/A   Haze
12:53 PM 45.0 °F 38.9 °F 36.0 °F 71% 30.00 in 6.0 mi NNW 12.7 mph - N/A   Haze
1:53 PM 45.0 °F 38.9 °F 36.0 °F 71% 29.99 in 5.0 mi NNW 12.7 mph - N/A   Haze
2:53 PM 45.0 °F 38.9 °F 36.0 °F 71% 30.00 in 5.0 mi NNW 12.7 mph - N/A   Haze
3:53 PM 45.0 °F 39.3 °F 36.0 °F 71% 30.01 in 5.0 mi NNW 11.5 mph - N/A   Haze
4:53 PM 44.1 °F 39.0 °F 35.1 °F 71% 30.02 in 5.0 mi North 9.2 mph - N/A   Haze
5:53 PM 43.0 °F 37.7 °F 35.1 °F 74% 30.01 in 8.0 mi NE 9.2 mph - 0.00 in   Overcast
6:53 PM 42.1 °F 36.6 °F 36.0 °F 79% 30.02 in 5.0 mi NNE 9.2 mph - 0.00 in Rain Light Rain
7:53 PM 39.9 °F 37.8 °F 37.0 °F 89% 30.04 in 4.0 mi NNE 3.5 mph - 0.02 in Rain Light Rain
8:53 PM 39.9 °F - 37.0 °F 89% 30.05 in 5.0 mi Calm Calm - 0.01 in Rain Light Rain
9:13 PM 39.2 °F 37.0 °F 37.4 °F 93% 30.05 in 5.0 mi NNE 3.5 mph - 0.00 in   Overcast
9:53 PM 39.9 °F 33.9 °F 36.0 °F 86% 30.04 in 6.0 mi NE 9.2 mph - 0.00 in   Overcast
10:25 PM 39.2 °F 37.0 °F 35.6 °F 87% 30.05 in 7.0 mi ENE 3.5 mph - N/A   Mostly Cloudy
10:38 PM 39.2 °F - 37.4 °F 93% 30.06 in 6.0 mi Calm Calm - N/A   Mostly Cloudy
10:53 PM 39.0 °F 33.4 °F 36.0 °F 89% 30.06 in 8.0 mi NE 8.1 mph - N/A   Overcast
11:15 PM 39.2 °F 33.6 °F 35.6 °F 87% 30.05 in 9.0 mi NNE 8.1 mph - N/A   Overcast
11:53 PM 39.0 °F 34.8 °F 35.1 °F 86% 30.06 in 9.0 mi NE 5.8 mph - N/A   Overcast